Aberdeen, SD

6:31 PM CST on February 19, 2018 (GMT -0600)
Aberdeen Regional

Weather History for KABR - December, 2013

Change the Weather History Date:

Thursday, December 26, 2013

  Actual Average Record
Temperature  
Mean Temperature 22 °F 13 °F  
Max Temperature 34 °F 23 °F 53 °F (2011)
Min Temperature 10 °F 3 °F -29 °F (1990)
Degree Days  
Heating Degree Days 43 52  
Month to date heating degree days 1510 1268  
Since 1 July heating degree days 3501 3231  
Cooling Degree Days 0 0  
Month to date cooling degree days 0 0  
Year to date cooling degree days 580 525  
Moisture  
Dew Point 18 °F    
Average Humidity 85    
Maximum Humidity 100    
Minimum Humidity 69    
Precipitation  
Precipitation 0.00 in 0.02 in 1.00 in (1916)
Month to date precipitation 0.68 0.43  
Year to date precipitation 21.70 21.63  
Snow  
Snow 0.00 in 0.20 in 8.60 in (1988)
Month to date snowfall 9.1 5.6  
Since 1 July snowfall 12.4 13.3  
Snow Depth 5.00 in    
Sea Level Pressure  
Sea Level Pressure 30.11 in    
Wind  
Wind Speed 8 mph (SW)    
Max Wind Speed 23 mph    
Max Gust Speed 26 mph    
Visibility 7 miles    
Events Fog    
T = Trace of Precipitation, MM = Missing Value Source: NWS Daily Summary

Daily Weather History Graph

Daily Weather History Graph

Search for Another Location

Airport or City:

Trip Planner

Search our weather history database for the weather conditions in past years. The results will help you decide how hot, cold, wet, or windy it might be!

Date:

Astronomy

Dec. 26, 2013 Rise Set
Actual Time 8:12 AM CST 4:56 PM CST
Civil Twilight 7:38 AM CST 5:30 PM CST
Nautical Twilight 7:00 AM CST 6:08 PM CST
Astronomical Twilight 6:24 AM CST 6:44 PM CST
Moon 1:29 AM CST (12/26) 12:44 PM CST (12/26)
Length of Visible Light 9h 52m
Length of Day
8h 43m
Last Quarter, 38% of the Moon is Illuminated
Dec 26
Last Quarter
Jan 1
New
Jan 7
First Quarter
Jan 15
Full
Jan 23
Last Quarter

Hourly Weather History & Observations

Time (CST) Temp. Windchill Dew Point Humidity Pressure Visibility Wind Dir Wind Speed Gust Speed Precip Events Conditions
12:53 AM 24.1 °F 19.7 °F 21.0 °F 88% 30.09 in 10.0 mi SW 3.5 mph - N/A   Overcast
1:53 AM 21.9 °F 13.4 °F 19.9 °F 92% 30.07 in 10.0 mi SW 6.9 mph - N/A   Overcast
2:53 AM 21.9 °F 17.2 °F 19.0 °F 89% 30.06 in 10.0 mi South 3.5 mph - N/A   Overcast
3:53 AM 19.9 °F 10.1 °F 18.0 °F 92% 30.05 in 10.0 mi South 8.1 mph - N/A   Overcast
4:53 AM 21.0 °F 14.6 °F 18.0 °F 88% 30.06 in 10.0 mi South 4.6 mph - N/A   Overcast
5:53 AM 18.0 °F - 16.0 °F 92% 30.05 in 10.0 mi Calm Calm - N/A   Overcast
6:53 AM 21.0 °F 10.6 °F 18.0 °F 88% 30.04 in 10.0 mi South 9.2 mph - N/A   Overcast
7:53 AM 23.0 °F 17.0 °F 19.9 °F 88% 30.05 in 10.0 mi SSW 4.6 mph - N/A   Overcast
8:53 AM 24.1 °F 17.0 °F 21.0 °F 88% 30.07 in 10.0 mi SW 5.8 mph - N/A   Overcast
9:53 AM 26.1 °F 21.9 °F 21.9 °F 84% 30.07 in 10.0 mi SW 3.5 mph - N/A   Overcast
10:35 AM 26.6 °F 21.2 °F 21.2 °F 80% 30.02 in 10.0 mi SW 4.6 mph - N/A   Overcast
10:53 AM 28.0 °F 21.7 °F 23.0 °F 81% 30.08 in 10.0 mi SW 5.8 mph - N/A   Overcast
11:53 AM 33.1 °F 25.5 °F 24.1 °F 70% 30.07 in 10.0 mi West 9.2 mph - N/A   Partly Cloudy
12:53 PM 33.1 °F 25.5 °F 24.1 °F 70% 30.07 in 10.0 mi NW 9.2 mph - N/A   Clear
1:53 PM 32.0 °F 21.2 °F 24.1 °F 73% 30.08 in 10.0 mi NW 16.1 mph - N/A   Clear
2:53 PM 32.0 °F 21.2 °F 24.1 °F 73% 30.09 in 10.0 mi NW 16.1 mph - N/A   Clear
3:43 PM 30.2 °F 17.1 °F 24.8 °F 80% 30.06 in 10.0 mi NW 21.9 mph - N/A   Mostly Cloudy
3:53 PM 30.9 °F 18.7 °F 25.0 °F 79% 30.12 in 10.0 mi NW 19.6 mph - N/A   Mostly Cloudy
4:53 PM 30.0 °F 18.7 °F 25.0 °F 82% 30.16 in 10.0 mi NNW 16.1 mph - N/A   Overcast
5:53 PM 28.9 °F 21.9 °F 24.1 °F 82% 30.17 in 10.0 mi North 6.9 mph - N/A   Overcast
6:53 PM 28.0 °F 22.8 °F 24.1 °F 85% 30.18 in 10.0 mi NNW 4.6 mph - N/A   Overcast
7:53 PM 26.1 °F - 21.9 °F 84% 30.19 in 10.0 mi Calm Calm - N/A   Overcast
8:17 PM 21.2 °F 16.4 °F 19.4 °F 93% 30.13 in 7.0 mi SW 3.5 mph - N/A   Mostly Cloudy
8:36 PM 17.6 °F 12.3 °F 15.8 °F 93% 30.13 in 5.0 mi SW 3.5 mph - N/A   Partly Cloudy
8:53 PM 15.1 °F 4.2 °F 12.9 °F 91% 30.19 in 5.0 mi SSW 8.1 mph - N/A   Clear
9:06 PM 12.2 °F 1.7 °F 10.4 °F 92% 30.13 in 3.0 mi SSW 6.9 mph - N/A   Scattered Clouds
9:08 PM 12.2 °F 4.3 °F 10.4 °F 92% 30.13 in 1.8 mi SW 4.6 mph - N/A   Scattered Clouds
9:10 PM 12.2 °F 4.3 °F 12.2 °F 100% 30.13 in 1.2 mi WSW 4.6 mph - N/A   Mostly Cloudy
9:12 PM 12.2 °F 4.3 °F 12.2 °F 100% 30.12 in 0.8 mi SW 4.6 mph - N/A   Mist
9:24 PM 12.2 °F 4.3 °F 12.2 °F 100% 30.12 in 0.2 mi SW 4.6 mph - N/A Fog Light Freezing Fog
9:53 PM 10.9 °F 2.9 °F 10.0 °F 96% 30.19 in 0.2 mi SSW 4.6 mph - N/A Fog Light Freezing Fog
10:41 PM 12.2 °F 2.9 °F 10.4 °F 92% 30.11 in 0.5 mi SSW 5.8 mph - N/A Fog Light Freezing Fog
10:53 PM 12.9 °F 2.6 °F 10.0 °F 88% 30.17 in 0.5 mi SSW 6.9 mph - N/A Fog Light Freezing Fog
11:18 PM 15.8 °F 5.1 °F 12.2 °F 86% 30.10 in 1.5 mi South 8.1 mph - N/A   Overcast
11:21 PM 15.8 °F 5.1 °F 12.2 °F 86% 30.10 in 3.0 mi South 8.1 mph - N/A   Mostly Cloudy
11:35 PM 17.6 °F 5.7 °F 15.8 °F 93% 30.09 in 7.0 mi South 10.4 mph - N/A   Scattered Clouds
11:53 PM 17.1 °F 5.8 °F 12.9 °F 84% 30.14 in 6.0 mi SSE 9.2 mph - N/A   Clear